sat.trackr.live / text

‹ back to catalog

STARLINK-1797

NORAD 46698 · 2020-073AE

PAYLOAD ACTIVE UNKNOWN

§ Identity

Operator
Country
US
Launch date
2020-10-18
Launch site
AFETR
Launch vehicle
Mass (kg)
RCS (m²)

Purposes: comms

External: N2YO · Heavens-Above · Gunter

§ Orbital elements

Epoch: 2026-09-20T06:00:02.000160Z

Period
89.97 min
Inclination
53.0285°
Eccentricity
0.0004149
Mean motion
16.00532400 rev/d
Perigee alt
270.2 km
Apogee alt
275.7 km
Semi-major
6,651.1 km
B*
2.0783e-3
RAAN
324.2507°
Arg perigee
26.0360°
Mean anomaly
157.4874°
Rev number
607

§ Raw data

STARLINK-17971 46698U 20073AE  26263.25002315  .01114589  64197-3  20783-2 0  99932 46698  53.0285 324.2507 0004149  26.0360 157.4874 16.00532400  6076

JSON: /api/v1/satellites/46698 · /tle

For live sub-satellite position, see the globe view (requires WebGL).

§ Visibility from observer

Set your observer location to see the next 7 days of passes ≥ 10°. The values pass through the URL so the page stays shareable.

No JS? Fill the form by hand. The geolocation button needs JavaScript.